{"data":{"norad_id":66380,"epoch":"2026-05-24T16:34:52.324896Z","epoch_age_seconds":95750,"freshness":"FRESH","line1":"1 66380U 25257A   26144.69088339  .00014849  00000+0  44969-3 0  9997","line2":"2 66380  53.1585 223.0166 0001059  97.2351 262.8772 15.34402083 31327","mean_motion":15.34402083,"eccentricity":0.0001059,"inclination_deg":53.1585,"raan_deg":223.0166,"arg_perigee_deg":97.2351,"mean_anomaly_deg":262.8772,"bstar":0.00044969,"rev_number":3132,"period_min":93.847630679996,"perigee_km":461.97260477334,"apogee_km":463.42149342494,"semimajor_km":6840.8340490991,"source":"CELESTRAK","updated_at":"2026-05-25T13:38:21.199850Z"}}